FOX-1A (AO-85)

Last updated on Tue Jul 01 2025 00:03:06 GMT+0000 (Coordinated Universal Time)

1 40967U 15058D 25181.56717599 .00003178 00000+0 28798-3 0 9996 2 40967 64.7766 289.4785 0158086 188.6715 171.1661 14.88176673 61192
UTC large
Height (km)
Speed (km/s)
/
Latitude / Longitude
Inclination (degrees)
Orbital Period (minutes)
Azimuth
Elevation
Range (km)
Doppler Factor

Next 0 passes for location: London (51.5072 / 0.1276)

Sorry there are no passes over London.